Voltar ao catálogo

STARLINK-32667

AtivoComunicaçõesVLEO
NORAD 62201·PAYLOAD·🇺🇸 United States

Lançado Dec 4, 2024 de Cape Canaveral Space Force Station

Loading…

Próximas Passagens (próximas 24 horas)

TLE

AtualizadoSource: CelesTrak SupGP

Época: Sep 15, 2026, 02:37 UTC

1 62201C 24229K   26258.10951389  .00004919  00000+0  17813-3 0  2582
2 62201  42.9998 280.5969 0001201 265.2515 145.5179 15.27582058    19

Acompanhe STARLINK-32667 em tempo real com AllMySat

Download on the App Store